Location: Newark
(48.6461°N, 4.3644°W)
Time: 10:39:21
(UTC+00:00)

Altair - Visible Passes

Search period start: 17 January 2021 00:00
Search period end: 27 January 2021 00:00
Orbit: 1501 x 1682 km, 47.2° (Epoch: 16 January)

Date Brightness Start Highest point End Pass type
(mag) Time Alt. Az. Time Alt. Az. Time Alt. Az.
17 Jan 9.4 05:54:52 10° S 06:02:58 29° SE 06:11:06 10° E visible
18 Jan 9.4 05:30:06 10° S 05:37:54 26° SE 05:45:46 10° E visible
19 Jan 9.4 05:05:23 10° S 05:12:51 24° SE 05:20:23 10° E visible
19 Jan 8.3 07:06:22 10° SW 07:16:11 58° SSE 07:26:02 10° ENE visible
20 Jan 9.4 04:40:43 10° S 04:47:48 22° SE 04:54:57 10° E visible
20 Jan 8.3 06:41:17 10° SW 06:51:01 56° SSE 07:00:49 10° ENE visible
21 Jan 9.5 04:16:07 10° S 04:22:46 20° SE 04:29:29 10° E visible
21 Jan 8.3 06:16:14 10° SW 06:25:52 53° SSE 06:35:35 10° ENE visible
22 Jan 9.5 03:51:36 10° SSE 03:57:45 18° SE 04:03:57 10° E visible
22 Jan 8.4 05:51:12 10° SW 06:00:43 50° SSE 06:10:21 10° ENE visible
23 Jan 9.5 03:27:55 11° SSE 03:32:44 17° SE 03:38:20 10° E visible
23 Jan 8.4 05:26:11 10° SW 05:35:35 48° SE 05:45:07 10° ENE visible
24 Jan 9.5 03:05:00 13° SE 03:07:44 15° ESE 03:12:36 10° E visible
24 Jan 8.4 05:03:05 17° SSW 05:10:27 45° SE 05:19:52 10° ENE visible
24 Jan 7.9 07:04:32 10° WSW 07:14:38 78° SSE 07:24:48 10° E visible
25 Jan 9.5 02:41:52 13° SE 02:42:43 13° ESE 02:46:42 10° E visible
25 Jan 8.4 04:39:57 24° SSW 04:45:20 42° SE 04:54:37 10° ENE visible
25 Jan 7.8 06:39:21 10° WSW 06:49:25 76° SSE 06:59:35 10° E visible
26 Jan 9.6 02:18:37 11° ESE 02:18:37 11° ESE 02:20:24 10° ESE visible
26 Jan 8.5 04:16:39 31° S 04:20:14 40° SE 04:29:21 10° ENE visible
26 Jan 7.8 06:14:43 12° WSW 06:24:13 74° SSE 06:34:22 10° E visible
